1501596000.25,2562,25.5,75104.0,25.01,-11.55,-11.11,0,*78
1501596001.5,2563,25.56,75106.5,24.99,-11.29,-10.89,0,*72
1501596002.75,2564,25.56,75104.3,24.97,-10.79,-10.41,0,*7B
1501596003.95,2565,25.5,75106.3,24.93,-10.53,-10.27,0,*76
1501596005.14,2566,25.5,75102.5,24.93,-9.75,-9.27,0,*71
1501596006.33,2567,25.5,75104.3,24.93,-9.05,-8.71,0,*75
1501596007.51,2568,25.56,75110.3,24.97,-9.27,-8.89,0,*79
1501596008.71,2569,25.56,75106.0,24.93,-10.01,-9.75,0,*42
1501596009.91,2570,25.56,75104.8,24.93,-9.57,-9.19,0,*7B
1501596011.1,2571,25.56,75106.0,24.93,-9.19,-9.01,0,*79
1501596012.34,2572,25.5,75104.3,24.97,-9.49,-9.11,0,*7A
1501596013.52,2573,25.56,75104.5,24.93,-9.05,-8.63,0,*73
1501596014.71,2574,25.56,75106.8,24.97,-8.45,-8.21,0,*73
1501596015.89,2575,25.56,75104.5,24.97,-8.85,-8.67,0,*7C
1501596017.09,2576,25.56,75106.3,24.97,-9.57,-9.27,0,*74
1501596018.3,2577,25.56,75106.3,24.97,-10.05,-9.57,0,*4D
1501596019.5,2578,25.56,75104.8,24.97,-9.93,-9.57,0,*75
1501596020.71,2579,25.56,75104.5,24.97,-9.79,-9.53,0,*74
1501596021.91,2580,25.5,75102.8,24.93,-8.85,-8.41,0,*76
1501596023.15,2581,25.56,75106.8,24.97,-8.07,-7.77,0,*73
1501596024.38,2582,25.56,75106.0,24.99,-7.83,-7.61,0,*7A
1501596025.58,2583,25.56,75104.5,24.99,-8.75,-8.55,0,*75
1501596026.79,2584,25.5,75104.5,25.01,-8.81,-8.71,0,*7F
1501596027.97,2585,25.56,75108.0,25.01,-7.87,-7.49,0,*73
1501596029.19,2586,25.56,75106.8,25.01,-7.57,-7.23,0,*71
1501596030.43,2587,25.56,75104.0,25.05,-7.65,-7.39,0,*7E
1501596031.64,2588,25.5,75104.5,25.05,-7.87,-7.69,0,*78
1501596032.89,2589,25.5,75104.5,25.07,-8.07,-7.95,0,*7F
1501596034.14,2590,25.56,75106.8,25.09,-7.73,-7.57,0,*7B
1501596035.31,2591,25.56,75110.5,25.09,-8.67,-8.55,0,*7D
1501596036.52,2592,25.5,75106.0,25.07,-8.59,-8.45,0,*7C
1501596037.71,2593,25.56,75104.8,25.09,-8.71,-8.59,0,*74
1501596038.89,2594,25.5,75102.5,25.09,-8.25,-8.17,0,*78
1501596040.08,2595,25.56,75106.8,25.09,-8.55,-8.41,0,*7D
1501596041.26,2596,25.5,75104.3,25.09,-8.37,-8.17,0,*79
1501596042.5,2597,25.56,75108.3,25.09,-8.11,-7.99,0,*75
1501596043.69,2598,25.56,75106.8,25.13,-8.45,-8.25,0,*78
1501596044.87,2599,25.56,75106.5,25.13,-8.75,-8.75,0,*7F
1501596046.08,2600,25.5,75106.0,25.11,-9.27,-9.19,0,*73
1501596047.32,2601,25.56,75106.0,25.11,-7.95,-7.87,0,*7C
1501596048.53,2602,25.56,75104.8,25.13,-7.87,-7.73,0,*75
1501596049.74,2603,25.56,75104.5,25.13,-7.53,-7.31,0,*7B
1501596050.97,2604,25.56,75102.0,25.15,-7.39,-7.23,0,*75
1501596052.21,2605,25.5,75102.5,25.15,-7.69,-7.49,0,*7D
1501596053.44,2606,25.56,75104.5,25.15,-8.29,-8.03,0,*74
1501596054.69,2607,25.5,75100.0,25.15,-7.91,-7.69,0,*7A
1501596055.91,2608,25.56,75102.0,25.19,-7.53,-7.23,0,*79
1501596057.13,2609,25.56,75106.0,25.23,-6.59,-6.51,0,*7E
1501596058.36,2610,25.56,75106.5,25.23,-7.15,-6.93,0,*71
1501596059.61,2611,25.56,75104.3,25.23,-7.27,-7.05,0,*7F
1501596060.86,2612,25.56,75106.8,25.27,-7.11,-6.97,0,*77
1501596062.11,2613,25.56,75100.3,25.27,-6.93,-6.81,0,*7A
1501596063.32,2614,25.56,75104.5,25.31,-6.81,-6.69,0,*7F
1501596064.55,2615,25.56,75108.3,25.29,-7.27,-7.27,0,*71
1501596065.77,2616,25.56,75106.5,25.31,-6.77,-6.55,0,*7B
1501596067.0,2617,25.56,75102.8,25.31,-6.63,-6.51,0,*7B
1501596068.21,2618,25.56,75106.3,25.33,-6.97,-6.73,0,*7D
1501596069.42,2619,25.56,75106.0,25.35,-6.85,-6.69,0,*72
1501596070.65,2620,25.56,75106.0,25.41,-6.63,-6.51,0,*78
1501596071.86,2621,25.56,75104.3,25.41,-6.55,-6.39,0,*72
1501596073.1,2622,25.5,75100.5,25.41,-6.63,-6.43,0,*79
1501596074.34,2623,25.56,75100.8,25.45,-7.15,-6.93,0,*71
1501596075.58,2624,25.56,75102.3,25.45,-6.97,-6.59,0,*7B
1501596076.8,2625,25.56,75106.0,25.45,-6.59,-6.35,0,*72
1501596078.01,2626,25.56,75104.0,25.49,-6.69,-6.43,0,*7F
1501596079.23,2627,25.56,75104.3,25.47,-7.73,-7.19,0,*74
1501596080.46,2628,25.56,75100.5,25.49,-8.17,-7.99,0,*70
1501596081.67,2629,25.56,75106.3,25.49,-8.67,-8.41,0,*7C
1501596082.91,2630,25.56,75106.3,25.47,-8.03,-7.73,0,*76
1501596084.13,2631,25.56,75104.0,25.47,-8.17,-7.69,0,*79
1501596085.34,2632,25.56,75104.8,25.49,-8.55,-8.25,0,*75
1501596086.55,2633,25.56,75106.5,25.49,-7.49,-7.23,0,*7F
1501596087.77,2634,25.56,75104.5,25.49,-7.11,-6.89,0,*74
1501596088.98,2635,25.56,75104.5,25.49,-8.55,-8.17,0,*73
1501596090.22,2636,25.56,75104.8,25.51,-7.57,-7.27,0,*78
1501596091.43,2637,25.56,75106.8,25.51,-8.59,-8.11,0,*72
1501596092.68,2638,25.56,75108.3,25.51,-8.07,-7.57,0,*7B
1501596093.89,2639,25.56,75106.5,25.51,-8.21,-7.65,0,*7F
1501596095.13,2640,25.56,75106.8,25.51,-8.07,-7.65,0,*75
1501596096.37,2641,25.56,75104.5,25.51,-7.43,-7.01,0,*79
1501596097.62,2642,25.56,75106.0,25.53,-7.39,-6.97,0,*7B
1501596098.85,2643,25.56,75106.3,25.53,-7.61,-7.15,0,*7C
1501596100.09,2644,25.56,75104.0,25.55,-7.99,-7.61,0,*79
1501596101.3,2645,25.56,75104.0,25.55,-8.29,-7.91,0,*73
1501596102.49,2646,25.56,75106.0,25.55,-8.75,-8.21,0,*7D
1501596103.75,2647,25.56,75106.8,25.57,-8.11,-7.61,0,*77
1501596104.99,2648,25.56,75106.0,25.57,-7.73,-7.23,0,*75
1501596106.23,2649,25.56,75104.5,25.57,-8.17,-7.57,0,*7A
1501596107.47,2650,25.56,75106.0,25.57,-8.41,-7.99,0,*73
1501596108.67,2651,25.56,75106.0,25.57,-9.19,-8.67,0,*70
1501596109.85,2652,25.56,75106.8,25.55,-8.75,-8.29,0,*70
1501596111.09,2653,25.56,75104.8,25.57,-8.17,-7.73,0,*77
1501596112.35,2654,25.56,75106.0,25.57,-8.03,-7.61,0,*76
1501596113.58,2655,25.56,75106.0,25.57,-8.25,-7.69,0,*7B
1501596114.81,2656,25.56,75104.0,25.57,-8.03,-7.49,0,*7E
1501596116.03,2657,25.56,75106.8,25.59,-8.21,-7.77,0,*7C
1501596117.21,2658,25.56,75104.8,25.59,-8.67,-8.25,0,*79
1501596118.42,2659,25.56,75104.8,25.57,-8.71,-8.25,0,*71
1501596119.63,2660,25.56,75106.8,25.59,-8.07,-7.53,0,*7A
1501596120.86,2661,25.56,75108.5,25.61,-8.21,-7.65,0,*71
1501596122.1,2662,25.56,75108.0,25.59,-7.57,-7.05,0,*71
1501596123.33,2663,25.56,75106.0,25.61,-7.87,-7.31,0,*71
1501596124.57,2664,25.56,75104.0,25.65,-6.97,-6.35,0,*77
1501596125.78,2665,25.56,75108.0,25.67,-6.81,-6.19,0,*7D
1501596126.97,2666,25.56,75106.3,25.67,-7.19,-6.81,0,*7F
1501596128.19,2667,25.56,75106.8,25.67,-6.97,-6.43,0,*77
1501596129.45,2668,25.56,75104.8,25.69,-7.73,-7.31,0,*79
1501596130.65,2669,25.56,75106.3,25.71,-7.39,-6.89,0,*7D
1501596131.88,2670,25.56,75106.0,25.71,-7.39,-6.93,0,*7E
1501596133.09,2671,25.56,75106.8,25.71,-7.39,-6.89,0,*74
1501596134.3,2672,25.56,75106.5,25.73,-7.61,-7.15,0,*7C
1501596135.54,2673,25.56,75104.8,25.75,-7.19,-6.63,0,*74
1501596136.75,2674,25.56,75104.5,25.77,-7.05,-6.51,0,*7D
1501596137.97,2675,25.56,75104.5,25.77,-8.81,-8.37,0,*71
1501596139.15,2676,25.56,75102.8,25.77,-9.71,-9.23,0,*78
1501596140.37,2677,25.56,75104.5,25.75,-9.79,-9.27,0,*77
1501596141.58,2678,25.56,75104.0,25.77,-9.15,-8.63,0,*71
1501596142.82,2679,25.56,75104.5,25.75,-9.11,-8.59,0,*7F
1501596144.02,2680,25.56,75104.3,25.73,-8.03,-7.49,0,*73
1501596145.27,2681,25.56,75104.5,25.75,-7.73,-7.23,0,*70
1501596146.54,2682,25.56,75102.0,25.75,-8.11,-7.57,0,*7B
1501596147.73,2683,25.56,75104.5,25.77,-8.93,-8.41,0,*7A
1501596148.97,2684,25.56,75106.0,25.75,-9.41,-8.97,0,*7A
1501596150.19,2685,25.56,75100.8,25.75,-8.93,-8.45,0,*7A
1501596151.41,2686,25.56,75102.5,25.75,-9.19,-8.85,0,*76
1501596152.61,2687,25.56,75104.5,25.75,-9.19,-8.67,0,*7B
1501596153.82,2688,25.56,75104.5,25.75,-9.19,-8.59,0,*79
1501596155.06,2689,25.56,75106.0,25.75,-8.81,-8.25,0,*73
1501596156.31,2690,25.56,75108.0,25.75,-7.91,-7.01,0,*7C
1501596157.55,2691,25.56,75106.8,25.75,-7.23,-6.63,0,*71
1501596158.77,2692,25.56,75108.5,25.77,-7.57,-6.89,0,*77
1501596159.98,2693,25.56,75112.3,25.79,-7.19,-6.69,0,*7C
1501596161.21,2694,25.56,75108.0,25.81,-7.91,-7.27,0,*77
1501596162.43,2695,25.56,75108.8,25.81,-7.57,-6.89,0,*79
1501596163.66,2696,25.56,75108.0,25.81,-7.65,-7.01,0,*7A
1501596164.93,2697,25.56,75104.3,25.83,-8.03,-7.43,0,*70
1501596166.16,2698,25.56,75106.8,25.83,-7.53,-6.93,0,*79
1501596167.4,2699,25.56,75106.5,25.83,-8.45,-7.91,0,*73
1501596168.63,2700,25.56,75106.8,25.83,-8.67,-8.03,0,*76
1501596169.87,2701,25.56,75106.5,25.83,-8.29,-7.65,0,*72
1501596171.11,2702,25.56,75108.3,25.87,-7.87,-7.27,0,*78
1501596172.37,2703,25.56,75106.5,25.87,-7.73,-6.93,0,*7C
1501596173.58,2704,25.56,75106.3,25.89,-7.57,-6.85,0,*74
1501596174.8,2705,25.56,75106.3,25.89,-7.43,-7.11,0,*7C
1501596176.0,2706,25.56,75104.0,25.89,-8.33,-7.77,0,*77
1501596177.19,2707,25.56,75108.8,25.89,-8.85,-8.21,0,*77
1501596178.46,2708,25.56,75104.0,25.87,-10.41,-9.83,0,*4E
1501596179.7,2709,25.56,75106.3,25.87,-10.41,-9.89,0,*45
1501596180.92,2710,25.56,75102.5,25.87,-10.19,-9.75,0,*43
1501596182.13,2711,25.56,75106.3,25.81,-9.45,-9.01,0,*76
1501596183.37,2712,25.56,75104.0,25.83,-9.37,-8.97,0,*7C
1501596184.6,2713,25.56,75102.5,25.81,-11.23,-10.79,0,*7A
1501596185.82,2714,25.56,75106.8,25.81,-11.63,-11.11,0,*76
1501596187.02,2715,25.56,75102.0,25.77,-11.01,-10.57,0,*79
1501596188.27,2716,25.56,75100.5,25.77,-11.77,-11.29,0,*73
1501596189.51,2717,25.56,75104.8,25.73,-11.97,-11.51,0,*77
1501596190.73,2718,25.56,75108.0,25.73,-10.27,-9.83,0,*44
1501596191.9,2719,25.56,75104.5,25.73,-9.93,-9.31,0,*7B
1501596193.13,2720,25.56,75104.0,25.69,-9.97,-9.45,0,*7D
1501596194.34,2721,25.56,75104.3,25.71,-9.45,-8.93,0,*70
1501596195.55,2722,25.56,75104.0,25.69,-8.93,-8.37,0,*7E
1501596196.74,2723,25.56,75108.5,25.71,-9.71,-9.19,0,*76
1501596197.97,2724,25.56,75106.5,25.69,-8.63,-8.11,0,*73
1501596199.16,2725,25.56,75108.8,25.71,-9.71,-9.19,0,*70
1501596200.35,2726,25.56,75106.8,25.71,-8.37,-7.83,0,*7D
1501596201.59,2727,25.56,75106.3,25.71,-8.07,-7.65,0,*77
1501596202.78,2728,25.56,75104.3,25.73,-7.23,-6.73,0,*75
1501596203.99,2729,25.56,75104.8,25.77,-6.81,-6.23,0,*7C
1501596205.2,2730,25.56,75106.5,25.77,-7.05,-6.81,0,*71
1501596206.39,2731,25.56,75108.0,25.77,-9.05,-8.63,0,*7C
1501596207.59,2732,25.56,75108.0,25.79,-9.05,-8.63,0,*71
1501596208.8,2733,25.56,75108.0,25.79,-9.19,-8.75,0,*7A
1501596209.99,2734,25.56,75108.0,25.77,-8.41,-7.83,0,*79
1501596211.25,2735,25.56,75110.5,25.79,-8.11,-7.69,0,*77
1501596212.49,2736,25.56,75110.3,25.79,-7.69,-7.19,0,*73
1501596213.73,2737,25.56,75104.8,25.83,-8.55,-8.11,0,*70
1501596214.97,2738,25.56,75106.0,25.83,-9.79,-9.41,0,*74
1501596216.19,2739,25.56,75108.0,25.81,-9.57,-9.15,0,*7A
1501596217.39,2740,25.56,75104.5,25.81,-10.35,-9.97,0,*42
1501596218.6,2741,25.56,75104.8,25.79,-8.89,-8.33,0,*75
1501596219.84,2742,25.56,75108.0,25.79,-10.15,-9.61,0,*4C
1501596221.06,2743,25.56,75110.5,25.77,-10.15,-9.61,0,*43
1501596222.26,2744,25.56,75108.3,25.77,-9.89,-9.37,0,*7A
1501596223.51,2745,25.56,75110.0,25.77,-11.67,-11.37,0,*7B
1501596224.72,2746,25.56,75110.0,25.73,-11.73,-11.19,0,*75
1501596225.95,2747,25.56,75110.0,25.73,-10.89,-10.41,0,*7C
1501596227.18,2748,25.56,75104.8,25.71,-11.41,-11.07,0,*77
1501596228.45,2749,25.56,75104.8,25.69,-11.93,-11.63,0,*72
1501596229.7,2750,25.56,75108.0,25.65,-11.63,-11.23,0,*7D
1501596230.94,2751,25.56,75110.3,25.65,-10.19,-9.57,0,*4A
1501596232.15,2752,25.56,75108.0,25.61,-10.01,-9.71,0,*40
1501596233.37,2753,25.56,75108.5,25.61,-10.97,-10.57,0,*72
1501596234.6,2754,25.56,75110.5,25.61,-10.85,-10.35,0,*72
1501596235.84,2755,25.56,75108.8,25.61,-11.11,-10.67,0,*78
1501596237.05,2756,25.56,75108.0,25.59,-11.23,-10.93,0,*7A
1501596238.27,2757,25.56,75108.3,25.59,-11.37,-10.93,0,*7E
1501596239.52,2758,25.56,75108.5,25.57,-11.41,-10.75,0,*76
1501596240.73,2759,25.56,75108.3,25.55,-9.53,-9.01,0,*74
1501596241.97,2760,25.56,75108.8,25.57,-10.01,-9.41,0,*47
1501596243.22,2761,25.56,75104.8,25.57,-10.71,-10.19,0,*74
1501596244.43,2762,25.56,75106.8,25.55,-9.11,-8.55,0,*7A
1501596245.66,2763,25.56,75106.5,25.55,-10.67,-10.23,0,*7A
1501596246.9,2764,25.56,75104.5,25.57,-9.37,-8.85,0,*77
1501596248.11,2765,25.56,75104.0,25.55,-8.71,-8.03,0,*79
1501596249.31,2766,25.56,75108.0,25.57,-9.31,-8.67,0,*7F
1501596250.54,2767,25.56,75110.3,25.57,-9.89,-9.45,0,*7C
1501596251.74,2768,25.56,75104.8,25.57,-9.31,-8.67,0,*71
1501596252.96,2769,25.56,75112.0,25.57,-8.85,-8.37,0,*7B
1501596254.23,2770,25.56,75110.8,25.57,-8.11,-7.61,0,*72
1501596255.46,2771,25.56,75110.0,25.61,-7.87,-7.31,0,*73
1501596256.7,2772,25.56,75110.3,25.61,-8.51,-7.87,0,*79
1501596257.91,2773,25.56,75110.5,25.65,-10.23,-9.67,0,*40
1501596259.16,2774,25.56,75110.0,25.65,-10.75,-10.23,0,*7C
1501596260.39,2775,25.56,75108.3,25.65,-9.97,-9.37,0,*74
1501596261.59,2776,25.56,75106.3,25.65,-9.27,-8.55,0,*79
1501596262.82,2777,25.56,75106.3,25.61,-9.83,-9.19,0,*7B
1501596264.05,2778,25.56,75108.3,25.61,-10.23,-9.61,0,*49
1501596265.27,2779,25.56,75106.8,25.59,-13.93,-13.37,0,*73
1501596266.52,2780,25.56,75108.5,25.57,-12.39,-11.67,0,*7D
1501596267.72,2781,25.56,75108.0,25.55,-9.97,-9.37,0,*7C
1501596268.94,2782,25.56,75108.3,25.57,-10.57,-9.93,0,*47
1501596270.15,2783,25.63,75112.0,25.55,-11.01,-10.31,0,*76
1501596271.38,2784,25.56,75106.8,25.55,-11.07,-10.35,0,*73
1501596272.58,2785,25.56,75108.3,25.55,-9.53,-8.67,0,*74
1501596273.79,2786,25.56,75104.0,25.55,-8.75,-7.95,0,*70
1501596275.0,2787,25.56,75110.0,25.55,-8.03,-7.11,0,*7C
1501596276.23,2788,25.56,75106.3,25.57,-8.03,-7.19,0,*79
1501596277.46,2789,25.56,75108.8,25.61,-7.57,-6.73,0,*7E
1501596278.7,2790,25.63,75110.8,25.65,-8.21,-7.39,0,*73
1501596279.9,2791,25.56,75110.0,25.67,-9.61,-8.85,0,*7D
1501596281.12,2792,25.56,75108.0,25.67,-10.19,-9.37,0,*41
1501596282.38,2793,25.56,75108.0,25.65,-10.41,-9.57,0,*49
1501596283.65,2794,25.56,75110.0,25.65,-10.63,-9.83,0,*47
1501596284.88,2795,25.63,75110.3,25.61,-8.59,-7.57,0,*75
1501596286.14,2796,25.63,75108.3,25.61,-7.65,-6.63,0,*70
1501596287.33,2797,25.56,75106.5,25.67,-8.17,-7.23,0,*78
1501596288.56,2798,25.56,75104.8,25.69,-8.33,-7.31,0,*7C
1501596289.77,2799,25.56,75106.5,25.71,-8.37,-7.27,0,*77
1501596290.98,2800,25.56,75106.5,25.71,-9.37,-8.33,0,*73
1501596292.19,2801,25.56,75106.8,25.71,-8.67,-7.73,0,*7D
1501596293.38,2802,25.56,75104.8,25.73,-9.23,-8.45,0,*77
1501596294.58,2803,25.56,75106.3,25.73,-9.97,-9.11,0,*79
1501596295.77,2804,25.63,75110.0,25.73,-10.05,-9.01,0,*4C
1501596296.96,2805,25.56,75104.8,25.73,-9.57,-8.75,0,*70
1501596298.2,2806,25.56,75104.3,25.73,-10.63,-9.83,0,*44
1501596299.42,2807,25.56,75104.8,25.69,-11.23,-10.53,0,*7E
1501596300.67,2808,25.56,75106.3,25.69,-11.07,-10.45,0,*70
1501596301.91,2809,25.56,75104.3,25.65,-11.97,-11.15,0,*70
1501596303.16,2810,25.63,75106.0,25.65,-13.01,-12.29,0,*79
1501596304.41,2811,25.56,75106.3,25.61,-13.19,-12.53,0,*78
1501596305.63,2812,25.56,75106.5,25.55,-14.29,-13.87,0,*70
1501596306.83,2813,25.56,75104.8,25.51,-15.99,-15.25,0,*71
1501596308.05,2814,25.56,75104.8,25.47,-16.93,-16.09,0,*75
1501596309.3,2815,25.56,75106.5,25.41,-16.97,-16.13,0,*7D
1501596310.56,2816,25.56,75104.5,25.33,-14.47,-13.61,0,*74
1501596311.81,2817,25.63,75104.8,25.33,-15.39,-14.47,0,*7E
1501596312.99,2818,25.63,75106.0,25.25,-14.69,-13.69,0,*79
1501596314.24,2819,25.63,75106.0,25.25,-12.61,-11.51,0,*7F
1501596315.46,2820,25.63,75108.3,25.23,-12.39,-11.41,0,*7F
1501596316.69,2821,25.56,75104.8,25.23,-12.21,-11.15,0,*76
1501596317.96,2822,25.63,75106.5,25.23,-12.61,-11.51,0,*71
1501596319.2,2823,25.56,75104.8,25.21,-11.77,-10.71,0,*75
1501596320.4,2824,25.56,75106.5,25.21,-11.23,-10.19,0,*7D
1501596321.64,2825,25.63,75108.0,25.21,-12.79,-11.77,0,*79
1501596322.92,2826,25.56,75104.3,25.19,-12.15,-11.07,0,*7C
1501596324.14,2827,25.63,75108.0,25.15,-11.19,-10.15,0,*7C
1501596325.39,2828,25.63,75108.3,25.15,-12.15,-11.19,0,*71
1501596326.66,2829,25.63,75108.3,25.15,-11.85,-10.79,0,*7D
1501596327.91,2830,25.56,75104.0,25.15,-10.75,-9.71,0,*4B
1501596329.14,2831,25.56,75104.0,25.15,-11.45,-10.53,0,*70
1501596330.36,2832,25.56,75106.3,25.15,-11.01,-10.09,0,*7C
1501596331.61,2833,25.63,75106.3,25.15,-10.35,-9.45,0,*4B
1501596332.85,2834,25.56,75106.8,25.19,-10.49,-9.49,0,*47
1501596334.13,2835,25.63,75106.5,25.19,-11.67,-10.71,0,*78
1501596335.4,2836,25.56,75106.3,25.19,-11.73,-10.71,0,*7E
1501596336.62,2837,25.56,75108.3,25.15,-10.89,-9.93,0,*43
1501596337.86,2838,25.63,75108.3,25.15,-11.51,-10.49,0,*77
1501596339.09,2839,25.63,75110.0,25.15,-11.11,-10.27,0,*7A
1501596340.34,2840,25.63,75108.5,25.15,-11.51,-10.53,0,*73
1501596341.58,2841,25.63,75106.8,25.19,-10.57,-9.61,0,*40
1501596342.78,2842,25.56,75104.5,25.19,-9.89,-8.93,0,*74
1501596343.99,2843,25.63,75104.0,25.19,-9.19,-8.29,0,*7D
1501596345.23,2844,25.56,75102.5,25.19,-10.05,-9.11,0,*45
1501596346.45,2845,25.56,75104.0,25.21,-9.61,-8.81,0,*7D
1501596347.64,2846,25.63,75104.0,25.21,-9.05,-8.21,0,*76
1501596348.86,2847,25.56,75102.3,25.21,-10.79,-10.01,0,*7F
1501596350.04,2848,25.56,75102.3,25.21,-10.01,-9.19,0,*4E
1501596351.22,2849,25.56,75102.5,25.21,-9.97,-9.19,0,*78
1501596352.41,2850,25.63,75106.8,25.21,-11.11,-10.31,0,*75
1501596353.63,2851,25.63,75104.5,25.21,-12.39,-11.67,0,*7F
1501596354.87,2852,25.63,75104.0,25.15,-13.43,-12.65,0,*76
1501596356.12,2853,25.63,75106.8,25.13,-13.33,-12.75,0,*77
1501596357.37,2854,25.63,75104.8,25.11,-13.37,-12.89,0,*75
1501596358.58,2855,25.63,75104.8,25.07,-13.93,-13.43,0,*7A
1501596359.83,2856,25.63,75104.3,25.03,-13.33,-12.89,0,*70
1501596361.08,2857,25.63,75102.3,25.03,-13.23,-13.01,0,*71
1501596362.28,2858,25.56,75102.0,25.01,-13.51,-13.23,0,*79
1501596363.5,2859,25.63,75106.0,24.97,-11.37,-11.15,0,*73
1501596364.74,2860,25.63,75104.3,24.97,-11.59,-11.33,0,*75
1501596365.96,2861,25.56,75104.0,24.97,-10.75,-10.49,0,*77
1501596367.18,2862,25.63,75104.0,24.93,-9.71,-9.53,0,*7F
1501596368.36,2863,25.56,75102.3,24.97,-8.29,-8.17,0,*77
1501596369.58,2864,25.63,75106.8,25.01,-7.43,-7.23,0,*75
1501596370.77,2865,25.63,75104.8,25.01,-7.23,-7.23,0,*72
1501596372.0,2866,25.63,75106.3,25.05,-7.31,-7.39,0,*7D
1501596373.25,2867,25.63,75106.5,25.07,-8.03,-8.03,0,*76
1501596374.5,2868,25.63,75104.3,25.07,-7.39,-7.69,0,*7C
1501596375.71,2869,25.63,75104.0,25.13,-6.93,-7.15,0,*72
1501596376.92,2870,25.63,75106.5,25.11,-7.15,-7.53,0,*75
1501596378.14,2871,25.63,75104.3,25.13,-8.93,-9.37,0,*7B
1501596379.34,2872,25.63,75104.0,25.13,-10.57,-11.15,0,*70
1501596380.62,2873,25.56,75102.0,25.11,-11.29,-11.89,0,*7E
1501596381.84,2874,25.56,75100.0,25.07,-12.43,-12.97,0,*7D
1501596383.09,2875,25.63,75102.8,25.03,-12.53,-13.19,0,*7E
1501596384.33,2876,25.63,75104.5,25.03,-12.47,-13.01,0,*71
1501596385.57,2877,25.63,75106.8,24.99,-13.15,-14.05,0,*77
1501596386.8,2878,25.63,75106.0,24.93,-13.93,-14.79,0,*77
1501596388.01,2879,25.63,75106.3,24.89,-12.43,-13.61,0,*7F
1501596389.26,2880,25.63,75106.0,24.85,-13.01,-14.05,0,*77
1501596390.46,2881,25.63,75106.5,24.81,-13.11,-14.29,0,*7D
1501596391.71,2882,25.63,75104.3,24.77,-11.89,-12.79,0,*77
1501596392.89,2883,25.63,75104.3,24.75,-9.93,-10.89,0,*4B
1501596394.09,2884,25.63,75106.3,24.75,-9.83,-10.85,0,*41
1501596395.28,2885,25.63,75104.5,24.75,-9.01,-9.89,0,*7E
1501596396.46,2886,25.63,75104.3,24.75,-7.83,-8.89,0,*78
1501596397.66,2887,25.63,75104.8,24.75,-8.81,-9.89,0,*75
1501596398.88,2888,25.63,75106.3,24.75,-9.37,-10.45,0,*4E
1501596400.05,2889,25.63,75104.8,24.75,-8.29,-9.31,0,*7A
1501596401.23,2890,25.63,75106.8,24.75,-7.19,-8.17,0,*7B
1501596402.44,2891,25.63,75104.3,24.77,-7.27,-8.33,0,*73
1501596403.7,2892,25.56,75104.8,24.79,-7.99,-9.11,0,*7A
1501596404.91,2893,25.63,75108.5,24.79,-7.19,-8.29,0,*79
1501596406.12,2894,25.63,75106.3,24.79,-6.43,-7.53,0,*72
1501596407.38,2895,25.63,75108.8,24.83,-5.23,-6.27,0,*71
1501596408.62,2896,25.63,75106.5,24.87,-5.65,-6.69,0,*7E
1501596409.83,2897,25.63,75108.8,24.87,-5.51,-6.59,0,*7B
1501596411.04,2898,25.63,75108.3,24.91,-5.35,-6.51,0,*79
1501596412.27,2899,25.63,75104.8,24.91,-5.85,-6.89,0,*76
1501596413.48,2900,25.63,75110.8,24.93,-6.63,-7.87,0,*71
1501596414.69,2901,25.63,75110.0,24.97,-6.73,-7.95,0,*76
1501596415.92,2902,25.63,75108.5,24.99,-6.43,-7.73,0,*70
1501596417.16,2903,25.63,75110.0,25.03,-5.97,-7.27,0,*78
1501596418.37,2904,25.63,75106.8,25.01,-6.19,-7.49,0,*70
1501596419.62,2905,25.56,75104.8,25.03,-5.93,-7.15,0,*7B
1501596420.82,2906,25.63,75106.5,25.07,-5.51,-6.73,0,*73
1501596422.05,2907,25.63,75110.8,25.05,-6.35,-7.43,0,*73
1501596423.23,2908,25.63,75110.5,25.05,-5.97,-7.15,0,*74
1501596424.44,2909,25.63,75114.5,25.09,-5.61,-6.77,0,*75
1501596425.63,2910,25.63,75114.0,25.09,-5.39,-6.51,0,*74
1501596426.84,2911,25.63,75112.5,25.09,-5.73,-6.81,0,*76
1501596428.08,2912,25.63,75108.8,25.13,-5.81,-6.93,0,*70
1501596429.28,2913,25.63,75110.8,25.15,-6.47,-7.53,0,*73
1501596430.5,2914,25.63,75108.3,25.13,-6.51,-7.57,0,*71
1501596431.72,2915,25.63,75110.5,25.15,-5.51,-6.47,0,*75
1501596432.95,2916,25.63,75112.3,25.19,-6.01,-7.05,0,*7B
1501596434.18,2917,25.63,75110.3,25.19,-5.23,-6.05,0,*78
1501596435.42,2918,25.63,75112.5,25.23,-5.07,-6.01,0,*7C
1501596436.66,2919,25.63,75110.3,25.23,-5.61,-6.51,0,*78
1501596437.87,2920,25.63,75110.8,25.25,-5.65,-6.47,0,*77
1501596439.12,2921,25.63,75112.0,25.27,-5.93,-6.81,0,*77
1501596440.39,2922,25.63,75112.0,25.31,-5.77,-6.63,0,*75
1501596441.65,2923,25.63,75114.3,25.31,-5.89,-6.63,0,*75
1501596442.86,2924,25.63,75114.3,25.31,-5.35,-6.09,0,*79
1501596444.07,2925,25.63,75112.8,25.33,-5.77,-6.51,0,*71
1501596445.31,2926,25.63,75112.3,25.35,-7.11,-7.73,0,*77
1501596446.52,2927,25.63,75114.0,25.33,-6.73,-7.35,0,*77
1501596447.75,2928,25.63,75108.0,25.35,-6.73,-7.39,0,*72
1501596448.96,2929,25.63,75110.0,25.37,-6.81,-7.35,0,*70
1501596450.14,2930,25.63,75110.8,25.37,-6.39,-6.85,0,*71
1501596451.38,2931,25.63,75110.8,25.41,-7.69,-8.17,0,*70
1501596452.59,2932,25.63,75110.8,25.41,-6.89,-7.23,0,*74
1501596453.8,2933,25.63,75112.8,25.41,-7.83,-8.17,0,*76
1501596455.02,2934,25.63,75112.8,25.37,-10.57,-11.29,0,*7A
1501596456.24,2935,25.63,75106.8,25.35,-12.25,-13.11,0,*77
1501596457.47,2936,25.63,75110.3,25.29,-13.19,-14.05,0,*75
1501596458.66,2937,25.63,75112.8,25.25,-12.47,-13.15,0,*74
1501596459.89,2938,25.63,75110.0,25.19,-13.51,-14.37,0,*75
1501596461.14,2939,25.63,75112.8,25.15,-13.69,-14.55,0,*77
1501596462.36,2940,25.63,75110.3,25.07,-13.43,-14.15,0,*76
1501596463.61,2941,25.63,75108.5,25.03,-13.19,-13.87,0,*70
1501596464.82,2942,25.63,75110.3,25.01,-13.11,-13.83,0,*7D
1501596466.04,2943,25.63,75110.0,24.97,-12.65,-12.97,0,*74
1501596467.26,2944,25.63,75110.0,24.91,-13.19,-13.69,0,*7F
1501596468.5,2945,25.63,75112.5,24.87,-12.25,-12.61,0,*7E
1501596469.73,2946,25.63,75112.8,24.85,-12.03,-12.35,0,*7A
1501596470.95,2947,25.63,75108.3,24.81,-12.43,-12.75,0,*7F
1501596472.18,2948,25.63,75112.3,24.77,-12.93,-13.29,0,*7C
1501596473.4,2949,25.63,75114.3,24.73,-13.07,-13.23,0,*7F
1501596474.64,2950,25.63,75110.5,24.69,-13.29,-13.55,0,*71
1501596475.86,2951,25.63,75112.5,24.67,-13.19,-13.33,0,*7D
1501596477.08,2952,25.63,75112.0,24.63,-13.47,-13.61,0,*76
1501596478.3,2953,25.63,75112.8,24.59,-13.47,-13.61,0,*7E
1501596479.53,2954,25.63,75112.0,24.55,-13.51,-13.61,0,*72
1501596480.74,2955,25.63,75114.8,24.51,-13.19,-13.19,0,*74
1501596482.0,2956,25.63,75112.8,24.45,-13.51,-13.33,0,*76
1501596483.19,2957,25.63,75114.0,24.41,-13.69,-13.55,0,*78
1501596484.41,2958,25.63,75114.3,24.41,-14.83,-14.61,0,*74
1501596485.63,2959,25.63,75116.0,24.37,-12.89,-12.65,0,*7A
1501596486.85,2960,25.63,75112.3,24.33,-13.29,-13.11,0,*7D
1501596488.09,2961,25.63,75108.3,24.31,-13.19,-13.01,0,*7C
1501596489.3,2962,25.63,75114.0,24.25,-12.83,-12.39,0,*72
1501596490.56,2963,25.63,75112.3,24.23,-12.75,-12.29,0,*7D
1501596491.8,2964,25.63,75108.5,24.23,-12.75,-12.25,0,*76
1501596493.05,2965,25.63,75110.0,24.19,-12.61,-12.21,0,*7F
1501596494.25,2966,25.63,75108.8,24.17,-13.43,-12.93,0,*7A
1501596495.47,2967,25.63,75108.5,24.15,-14.23,-13.47,0,*70
1501596496.72,2968,25.63,75110.3,24.11,-13.01,-12.15,0,*7A
1501596497.92,2969,25.63,75110.0,24.11,-11.23,-10.27,0,*7A
1501596499.18,2970,25.63,75110.8,24.09,-11.93,-11.01,0,*75
1501596500.4,2971,25.63,75110.5,24.09,-12.39,-11.41,0,*73
1501596501.6,2972,25.63,75110.0,24.07,-11.11,-10.01,0,*72
1501596502.8,2973,25.63,75110.3,24.07,-10.97,-9.89,0,*44
1501596504.02,2974,25.63,75110.8,24.07,-11.67,-10.89,0,*75
1501596505.26,2975,25.63,75110.3,24.07,-12.61,-11.81,0,*78
1501596506.51,2976,25.63,75110.0,24.01,-12.93,-12.15,0,*7E
1501596507.71,2977,25.63,75112.3,23.99,-13.69,-12.93,0,*73
1501596509.0,2978,25.63,75108.5,23.97,-14.05,-13.33,0,*74